Flag for Norway Weather past 2 weeks in Bryne, Norway

Now
55 °F

Cool.


Feels Like: 54 °F
Forecast: 53 / 58 °F
Wind: 5 mph from North

Location: Obrestad

Current Time: Jul 6, 2015 at 5:53:48 AM

Latest Report: Jul 6, 2015 at 4:00 AM


Visibility: N/A

Pressure: 29.75 "Hg

Humidity: 94%

Dew point: 53 °F

Location of BryneLocation

Historic Weather in Bryne — Graph

°F

Bryne temperature yesterday

Maximum temperature yesterday: 64 °F (at 1:00 AM)
Minimum temperature yesterday: 55 °F (at 8:00 PM)
Average temperature yesterday: 59 °F

Past Weeks' High & Low Weather Summary

 TemperatureHumidityPressure
High78 °F (Jul 2, 5:00 PM)98% (Jun 28, 4:00 AM)30.30 "Hg (Jun 28, 4:00 AM)
Low44 °F (Jun 26, 3:00 AM)43% (Jul 2, 5:00 PM)29.69 "Hg (Jun 22, 8:00 PM)
Average56 °F84%30.01 "Hg
* Reported Jun 21 4:00 AM — Jul 6 4:00 AM, Bryne, Weather by CustomWeather, © 2015

Note: Actual official high and low records may vary slightly from our data, if they occured in-between our weather recording intervals... More about our weather records

Advertising

Bryne weather history for previous 24 hours

 ConditionsComfort  
Time TempWeatherWind HumidityBarometerVisibility
4:00 AM
Mon, Jul 6
55 °FCool.5 mph94%29.75 "HgN/A
3:00 AM55 °FCool.5 mph94%29.77 "HgN/A
2:00 AM56 °FCool.7 mph93%29.78 "HgN/A
1:00 AM57 °FCool.6 mph90%29.81 "HgN/A
12:00 AM57 °FCool.2 mph90%29.83 "HgN/A
10:00 PM
Sun, Jul 5
56 °FCool.3 mph95%29.85 "HgN/A
9:00 PM56 °FCool.3 mph97%29.88 "HgN/A
8:00 PM55 °FCool.5 mph96%29.91 "HgN/A
7:00 PM56 °FCool.5 mph96%29.94 "HgN/A
6:00 PM56 °FCool.3 mph94%29.97 "HgN/A
5:00 PM57 °FCool.3 mph93%29.99 "HgN/A
4:00 PM57 °FCool.2 mph91%30.03 "HgN/A
3:00 PM58 °FCool.2 mph90%30.03 "HgN/A
2:00 PM59 °FCool.3 mph91%30.05 "HgN/A
1:00 PM60 °FCool.2 mph89%30.06 "HgN/A
12:00 PM60 °FCool.2 mph92%30.06 "HgN/A
11:00 AM60 °FCool.2 mph94%30.07 "HgN/A
10:00 AM60 °FCool.3 mph97%30.06 "HgN/A
9:00 AM59 °FCool.2 mph96%30.04 "HgN/A
8:00 AM59 °FCool.2 mph96%30.04 "HgN/A
7:00 AM59 °FCool.2 mph95%30.04 "HgN/A
6:00 AM60 °FCool.3 mph94%30.04 "HgN/A
Weather by CustomWeather, © 2015

See weather overviewHow to use our weather pages